Showing default

GALILEO 14 (26B), 41549

Orbit data source: Space-Track

GALILEO 14 (26B), 41549 is a payload satellite owned by GNSS Agency (ESA) that was launched on Tue, 24 May 2016 UTC via a SOYUZ-ST-B launch vehicle from the French Guiana (FRGUI). Payload-class satellites include a variety of spacecraft equipped with specific instruments for various scientific and technological missions. These include communications satellites like Starlink; space stations such as the ISS; scientific satellites like the Hubble; Earth observation satellites from companies like Planet Labs, Umbra, and HawkEye 360; GPS; miniature CubeSats for education and research; and military/defense satellites.

Loading next visibility...
Identifier
41549, 2016-030A
Orbit
Active
Last TLE update
3 days ago
Origin
Manufacturer
OHB
Mission
Operational Civil Navigation
Bus & Motor
GALILEOSAT, AOCS
Mass
733 kg wet, 660 kg dry
Launch date (UTC)
2016-05-24 (9 years ago)
Launch vehicle
SOYUZ-ST-B
Launch site
French Guiana (FRGUI)
Object type
Payload
Rocket body
Debris
Shape & HBR
Box + 2 Pan, 14.71 m
Radar Cross Section
9.223 m², Large (>1 m²)

Expand to show TLE details & history

TLE from 3 days ago
0 GALILEO 14 (26B)
1 41549U 16030A   25181.43207387  .00000023  00000-0  00000+0 0  9998
2 41549  55.2099 231.3684 0002748 313.2420  46.8126  1.70474050 56655
Epoch: 2025-06-30T10:22Z
TLE epoch observation values (Epoch: 2025-06-30T10:22:11.182Z)
Latitude
-0.00002°
Longitude
157.09522°
Altitude
23,216.875 km
Speed
3.67 km/s
True Right ascension
15h 25m 32s
True Declination
0° 00' 00"
Sunlit
Object was in daylight at epoch
Visualization orbit readout
Latitude
-52.64817°
Longitude
42.42272°
Altitude
23,237.109 km
Speed
3.669 km/s
Apparent Right ascension
07h 06m 19s
Apparent Declination
-52° 09' 10"
Sunlit
Object is in daylight
Visualization observer readout
Local Sidereal Time
16:25:29
Azimuth
232.404° WSW
Elevation
-60.009°
Doppler factor
1
Orbital elements
Apogee altitude
23,230.312 km
Perigee altitude
23,214.044 km
Semi-major axis
29,600.315 km
Eccentricity
0.00027
Inclination
55.2099°
RAAN
231.3684°
Arg. of periapsis
313.242°
True anomaly
Unknown
Mean anomaly
46.8126°
Eccentric anomaly
Unknown
Mean motion
0.42619 °/min
Orbital period
844.7 mins
BSTAR
0
Loading maneuver chart data...
Loading SW <> Apogee altitude chart data...
Loading historical data...
Loading historical data...
Loading historical data...
Loading historical data...
Loading historical data...
Loading historical data...
Loading historical data...
Other satellites on launch #30 in the year 2016 (2016-05-24 UTC)

GALILEO 14 (26B) Visibility forecast

Observer location: undefined°, undefined°

Span
Click to sort rows by Start time (UTC) header in descending order
Start Az.
Max El. time (UTC)
Max El. Az.
Max El.
End time (UTC)
End Az.
446 mins2025-07-03 09:42:06.772Z277.218° WNW2025-07-03 13:54:06.772Z251.857° W44.776°2025-07-03 17:08:06.772Z181.369° SSW
173 mins2025-07-03 23:29:06.772Z91.112° ESE2025-07-04 00:57:06.772Z60.632° ENE20.111°2025-07-04 02:22:06.772Z35.736° NE
|